Wetterdaten: Woche 19.12.16 - 25.12.16 (KW51)
Datum Zeit Temp. I. Temp. A. Feuchte I. Feuchte A. Luftdruck Regen Wind Richtung Sonnenschein UV Solar Taupunkt Windchill Windben
19.12.2016 00:00 24,4 C 0,1 C 54 % 97 % 1032,6 hPa 0,0 l/m 0,0 km/h (0 Bft) N 0,00 h 0,0 UV-I 0 W/m -0,4 C 0,1 C 0,0 km/h (0 Bft)
19.12.2016 01:00 24,4 C -0,0 C 54 % 97 % 1032,5 hPa 0,0 l/m 0,0 km/h (0 Bft) N 0,00 h 0,0 UV-I 0 W/m -0,4 C -0,0 C 0,0 km/h (0 Bft)
19.12.2016 02:00 24,3 C 0,1 C 54 % 97 % 1032,5 hPa 0,0 l/m 0,0 km/h (0 Bft) N 0,00 h 0,0 UV-I 0 W/m -0,4 C 0,1 C 0,1 km/h (0 Bft)
19.12.2016 03:00 24,2 C 0,1 C 54 % 97 % 1032,5 hPa 0,0 l/m 0,0 km/h (0 Bft) N 0,00 h 0,0 UV-I 0 W/m -0,3 C 0,1 C 0,0 km/h (0 Bft)
19.12.2016 04:00 24,1 C 0,4 C 54 % 97 % 1032,2 hPa 0,0 l/m 0,0 km/h (0 Bft) N 0,00 h 0,0 UV-I 0 W/m -0,1 C 0,4 C 0,1 km/h (0 Bft)
19.12.2016 05:00 23,9 C 0,1 C 54 % 97 % 1031,9 hPa 0,0 l/m 0,0 km/h (0 Bft) N 0,00 h 0,0 UV-I 0 W/m -0,3 C 0,1 C 0,1 km/h (0 Bft)
19.12.2016 06:00 23,9 C 0,2 C 54 % 97 % 1031,8 hPa 0,0 l/m 0,2 km/h (0 Bft) NO 0,00 h 0,0 UV-I 0 W/m -0,2 C 0,2 C 1,1 km/h (1 Bft)
19.12.2016 07:00 23,8 C 0,3 C 54 % 97 % 1031,8 hPa 0,0 l/m 1,9 km/h (1 Bft) O-NO 0,00 h 0,0 UV-I 0 W/m -0,1 C 0,2 C 4,2 km/h (1 Bft)
19.12.2016 08:00 23,8 C 0,2 C 54 % 96 % 1031,7 hPa 0,0 l/m 1,1 km/h (1 Bft) O-NO 0,00 h 0,0 UV-I 10 W/m -0,3 C 0,2 C 2,9 km/h (1 Bft)
19.12.2016 09:00 24,0 C 0,5 C 53 % 95 % 1031,8 hPa 0,0 l/m 2,4 km/h (1 Bft) O 0,00 h 0,0 UV-I 19 W/m -0,3 C 0,4 C 5,6 km/h (1 Bft)
19.12.2016 10:00 23,9 C 0,6 C 53 % 93 % 1031,7 hPa 0,0 l/m 5,8 km/h (2 Bft) O 0,00 h 0,0 UV-I 22 W/m -0,3 C -0,3 C 13,7 km/h (3 Bft)
19.12.2016 11:00 24,1 C 0,8 C 52 % 92 % 1031,6 hPa 0,0 l/m 4,5 km/h (1 Bft) O 0,00 h 0,0 UV-I 31 W/m -0,3 C 0,3 C 10,1 km/h (2 Bft)
19.12.2016 12:00 23,9 C 0,8 C 52 % 91 % 1031,1 hPa 0,0 l/m 4,5 km/h (1 Bft) O 0,00 h 0,0 UV-I 43 W/m -0,4 C 0,2 C 9,8 km/h (2 Bft)
19.12.2016 13:00 23,9 C 0,9 C 52 % 92 % 1030,4 hPa 0,0 l/m 4,0 km/h (1 Bft) O-NO 0,00 h 0,0 UV-I 39 W/m -0,3 C 0,4 C 8,5 km/h (2 Bft)
19.12.2016 14:00 23,8 C 0,8 C 52 % 91 % 1030,3 hPa 0,0 l/m 4,0 km/h (1 Bft) O 0,00 h 0,0 UV-I 26 W/m -0,5 C 0,3 C 9,4 km/h (2 Bft)
19.12.2016 15:00 24,1 C 0,8 C 52 % 92 % 1030,1 hPa 0,0 l/m 4,0 km/h (1 Bft) O 0,00 h 0,0 UV-I 12 W/m -0,4 C 0,5 C 10,2 km/h (2 Bft)
19.12.2016 16:00 24,1 C 0,7 C 51 % 92 % 1029,8 hPa 0,0 l/m 5,9 km/h (2 Bft) O-NO 0,00 h 0,0 UV-I 0 W/m -0,4 C -0,1 C 12,4 km/h (3 Bft)
19.12.2016 17:00 23,9 C 0,7 C 52 % 92 % 1029,8 hPa 0,0 l/m 5,0 km/h (1 Bft) O 0,00 h 0,0 UV-I 0 W/m -0,4 C -0,0 C 10,9 km/h (2 Bft)
19.12.2016 18:00 24,1 C 0,6 C 54 % 93 % 1029,8 hPa 0,0 l/m 4,3 km/h (1 Bft) O 0,00 h 0,0 UV-I 0 W/m -0,4 C 0,0 C 9,7 km/h (2 Bft)
19.12.2016 19:00 24,4 C 0,4 C 54 % 93 % 1029,9 hPa 0,0 l/m 3,6 km/h (1 Bft) O 0,00 h 0,0 UV-I 0 W/m -0,6 C 0,2 C 9,5 km/h (2 Bft)
19.12.2016 20:00 24,5 C 0,3 C 54 % 92 % 1030,0 hPa 0,0 l/m 3,9 km/h (1 Bft) O-NO 0,00 h 0,0 UV-I 0 W/m -0,8 C -0,2 C 9,2 km/h (2 Bft)
19.12.2016 21:00 24,5 C 0,1 C 55 % 93 % 1029,8 hPa 0,0 l/m 3,6 km/h (1 Bft) O-NO 0,00 h 0,0 UV-I 0 W/m -0,9 C -0,1 C 8,9 km/h (2 Bft)
19.12.2016 22:00 24,6 C -0,1 C 54 % 93 % 1029,8 hPa 0,0 l/m 3,5 km/h (1 Bft) O 0,00 h 0,0 UV-I 0 W/m -1,1 C -0,3 C 8,8 km/h (2 Bft)
19.12.2016 23:00 24,5 C -0,2 C 54 % 93 % 1029,7 hPa 0,0 l/m 4,2 km/h (1 Bft) O 0,00 h 0,0 UV-I 0 W/m -1,2 C -0,6 C 9,7 km/h (2 Bft)
20.12.2016 00:00 24,6 C -0,4 C 56 % 94 % 1029,4 hPa 0,0 l/m 3,2 km/h (1 Bft) O 0,00 h 0,0 UV-I 0 W/m -1,3 C -0,6 C 7,8 km/h (2 Bft)
20.12.2016 01:00 24,5 C -0,7 C 56 % 94 % 1029,6 hPa 0,0 l/m 6,5 km/h (2 Bft) O-NO 0,00 h 0,0 UV-I 0 W/m -1,5 C -1,7 C 13,9 km/h (3 Bft)
20.12.2016 02:00 24,5 C -0,9 C 56 % 94 % 1029,8 hPa 0,0 l/m 4,5 km/h (1 Bft) O-NO 0,00 h 0,0 UV-I 0 W/m -1,8 C -1,5 C 9,3 km/h (2 Bft)
20.12.2016 03:00 24,3 C -1,1 C 56 % 94 % 1029,8 hPa 0,0 l/m 4,6 km/h (1 Bft) O 0,00 h 0,0 UV-I 0 W/m -1,9 C -1,7 C 9,8 km/h (2 Bft)
20.12.2016 04:00 23,8 C -1,2 C 56 % 94 % 1029,4 hPa 0,0 l/m 6,0 km/h (2 Bft) O 0,00 h 0,0 UV-I 0 W/m -2,0 C -2,2 C 12,4 km/h (3 Bft)
20.12.2016 05:00 23,5 C -1,3 C 56 % 94 % 1028,7 hPa 0,0 l/m 2,8 km/h (1 Bft) O-NO 0,00 h 0,0 UV-I 0 W/m -2,2 C -1,5 C 7,6 km/h (2 Bft)
20.12.2016 06:00 23,3 C -1,5 C 56 % 94 % 1028,2 hPa 0,0 l/m 5,8 km/h (2 Bft) O-NO 0,00 h 0,0 UV-I 0 W/m -2,4 C -2,6 C 11,9 km/h (2 Bft)
20.12.2016 07:00 23,3 C -1,7 C 56 % 94 % 1028,1 hPa 0,0 l/m 5,4 km/h (1 Bft) O 0,00 h 0,0 UV-I 0 W/m -2,5 C -2,6 C 11,7 km/h (2 Bft)
20.12.2016 08:00 23,5 C -1,7 C 56 % 94 % 1028,3 hPa 0,0 l/m 5,4 km/h (1 Bft) O 0,00 h 0,0 UV-I 10 W/m -2,5 C -2,7 C 11,0 km/h (2 Bft)
20.12.2016 09:00 23,6 C -1,8 C 57 % 94 % 1028,3 hPa 0,0 l/m 5,6 km/h (1 Bft) O 0,00 h 0,0 UV-I 27 W/m -2,6 C -3,1 C 11,6 km/h (2 Bft)
20.12.2016 10:00 23,8 C -1,8 C 56 % 93 % 1028,0 hPa 0,0 l/m 6,4 km/h (2 Bft) O 0,00 h 0,5 UV-I 51 W/m -2,7 C -3,3 C 12,7 km/h (3 Bft)
20.12.2016 11:00 23,9 C -1,3 C 53 % 92 % 1027,5 hPa 0,0 l/m 4,3 km/h (1 Bft) O 0,23 h 0,5 UV-I 122 W/m -2,5 C -2,0 C 8,7 km/h (2 Bft)
20.12.2016 12:00 23,4 C -1,6 C 49 % 91 % 1027,1 hPa 0,0 l/m 9,4 km/h (2 Bft) O-SO 0,23 h 0,6 UV-I 139 W/m -2,9 C -4,7 C 17,6 km/h (3 Bft)
20.12.2016 13:00 23,3 C -1,9 C 49 % 91 % 1026,9 hPa 0,0 l/m 4,2 km/h (1 Bft) O 0,00 h 0,5 UV-I 56 W/m -3,1 C -2,3 C 9,8 km/h (2 Bft)
20.12.2016 14:00 23,5 C -2,1 C 50 % 91 % 1026,5 hPa 0,0 l/m 6,1 km/h (2 Bft) O-SO 0,00 h 0,0 UV-I 43 W/m -3,3 C -3,5 C 12,7 km/h (3 Bft)
20.12.2016 15:00 23,9 C -2,4 C 50 % 91 % 1026,3 hPa 0,0 l/m 7,0 km/h (2 Bft) O 0,00 h 0,0 UV-I 24 W/m -3,7 C -4,0 C 14,2 km/h (3 Bft)
20.12.2016 16:00 24,1 C -2,9 C 50 % 91 % 1026,2 hPa 0,0 l/m 8,0 km/h (2 Bft) O 0,00 h 0,0 UV-I 5 W/m -4,2 C -5,0 C 15,7 km/h (3 Bft)
20.12.2016 17:00 24,1 C -3,0 C 50 % 92 % 1026,3 hPa 0,0 l/m 5,0 km/h (1 Bft) O 0,00 h 0,0 UV-I 0 W/m -4,1 C -3,8 C 10,7 km/h (2 Bft)
20.12.2016 18:00 24,1 C -3,1 C 51 % 92 % 1026,3 hPa 0,0 l/m 6,9 km/h (2 Bft) O-NO 0,00 h 0,0 UV-I 0 W/m -4,2 C -4,7 C 13,9 km/h (3 Bft)
20.12.2016 19:00 24,2 C -3,3 C 52 % 92 % 1026,3 hPa 0,0 l/m 5,5 km/h (1 Bft) O 0,00 h 0,0 UV-I 0 W/m -4,4 C -4,3 C 12,2 km/h (2 Bft)
20.12.2016 20:00 24,1 C -3,5 C 53 % 92 % 1026,6 hPa 0,0 l/m 5,8 km/h (2 Bft) O 0,00 h 0,0 UV-I 0 W/m -4,6 C -4,6 C 10,1 km/h (2 Bft)
20.12.2016 21:00 24,2 C -3,7 C 54 % 93 % 1027,3 hPa 0,0 l/m 3,2 km/h (1 Bft) O 0,00 h 0,0 UV-I 0 W/m -4,7 C -3,8 C 8,0 km/h (2 Bft)
20.12.2016 22:00 24,5 C -3,7 C 53 % 93 % 1027,6 hPa 0,0 l/m 1,7 km/h (1 Bft) O 0,00 h 0,0 UV-I 0 W/m -4,7 C -3,7 C 4,6 km/h (1 Bft)
20.12.2016 23:00 24,5 C -4,0 C 53 % 93 % 1027,9 hPa 0,0 l/m 1,9 km/h (1 Bft) O-NO 0,00 h 0,0 UV-I 0 W/m -4,9 C -4,0 C 4,9 km/h (1 Bft)
21.12.2016 00:00 24,5 C -4,1 C 54 % 93 % 1028,0 hPa 0,0 l/m 1,8 km/h (1 Bft) O-NO 0,00 h 0,0 UV-I 0 W/m -5,1 C -4,1 C 5,1 km/h (1 Bft)
21.12.2016 01:00 24,6 C -4,5 C 54 % 93 % 1028,2 hPa 0,0 l/m 0,7 km/h (0 Bft) O-NO 0,00 h 0,0 UV-I 0 W/m -5,4 C -4,5 C 2,7 km/h (1 Bft)
21.12.2016 02:00 24,5 C -5,2 C 54 % 93 % 1028,7 hPa 0,0 l/m 0,1 km/h (0 Bft) O-NO 0,00 h 0,0 UV-I 0 W/m -6,1 C -5,2 C 1,0 km/h (0 Bft)
21.12.2016 03:00 24,3 C -5,9 C 53 % 93 % 1029,1 hPa 0,0 l/m 0,0 km/h (0 Bft) N 0,00 h 0,0 UV-I 0 W/m -6,9 C -5,9 C 0,1 km/h (0 Bft)
21.12.2016 04:00 24,1 C -5,9 C 54 % 94 % 1029,4 hPa 0,0 l/m 0,0 km/h (0 Bft) N 0,00 h 0,0 UV-I 0 W/m -6,7 C -5,9 C 0,0 km/h (0 Bft)
21.12.2016 05:00 23,9 C -6,5 C 54 % 93 % 1029,8 hPa 0,0 l/m 0,0 km/h (0 Bft) N 0,00 h 0,0 UV-I 0 W/m -7,4 C -6,5 C 0,0 km/h (0 Bft)
21.12.2016 06:00 23,9 C -6,4 C 54 % 94 % 1030,6 hPa 0,0 l/m 0,0 km/h (0 Bft) N 0,00 h 0,0 UV-I 0 W/m -7,2 C -6,4 C 0,1 km/h (0 Bft)
21.12.2016 07:00 23,7 C -5,0 C 54 % 95 % 1030,7 hPa 0,0 l/m 0,9 km/h (0 Bft) O-SO 0,00 h 0,0 UV-I 0 W/m -5,7 C -5,0 C 1,5 km/h (1 Bft)
21.12.2016 08:00 23,6 C -4,2 C 55 % 95 % 1031,2 hPa 0,0 l/m 1,7 km/h (1 Bft) S-SO 0,00 h 0,0 UV-I 17 W/m -4,9 C -4,2 C 3,9 km/h (1 Bft)
21.12.2016 09:00 23,6 C -3,8 C 54 % 94 % 1031,8 hPa 0,0 l/m 1,2 km/h (1 Bft) S-SO 0,00 h 0,0 UV-I 24 W/m -4,6 C -3,8 C 2,7 km/h (1 Bft)
21.12.2016 10:00 23,4 C -3,8 C 51 % 94 % 1032,2 hPa 0,0 l/m 0,7 km/h (0 Bft) S 0,00 h 0,0 UV-I 36 W/m -4,6 C -3,8 C 2,0 km/h (1 Bft)
21.12.2016 11:00 23,4 C -3,7 C 50 % 95 % 1032,2 hPa 0,0 l/m 2,4 km/h (1 Bft) S 0,00 h 0,0 UV-I 52 W/m -4,3 C -3,7 C 4,8 km/h (1 Bft)
21.12.2016 12:00 23,6 C -3,4 C 51 % 95 % 1032,4 hPa 0,0 l/m 1,3 km/h (1 Bft) S 0,00 h 0,0 UV-I 57 W/m -4,1 C -3,4 C 3,2 km/h (1 Bft)
21.12.2016 13:00 22,5 C -3,2 C 43 % 95 % 1032,4 hPa 0,0 l/m 1,0 km/h (0 Bft) S-SO 0,00 h 0,0 UV-I 43 W/m -4,0 C -3,2 C 2,7 km/h (1 Bft)
21.12.2016 14:00 22,2 C -3,2 C 46 % 95 % 1032,6 hPa 0,0 l/m 2,3 km/h (1 Bft) S-SO 0,00 h 0,0 UV-I 29 W/m -3,9 C -3,2 C 4,3 km/h (1 Bft)
21.12.2016 15:00 23,1 C -3,0 C 48 % 95 % 1033,0 hPa 0,0 l/m 0,9 km/h (0 Bft) W-SW 0,00 h 0,0 UV-I 13 W/m -3,7 C -3,0 C 2,6 km/h (1 Bft)
21.12.2016 16:00 23,1 C -3,0 C 50 % 95 % 1033,3 hPa 0,0 l/m 1,2 km/h (1 Bft) W-SW 0,00 h 0,0 UV-I 0 W/m -3,6 C -3,0 C 3,1 km/h (1 Bft)
21.12.2016 17:00 23,2 C -3,0 C 50 % 95 % 1033,5 hPa 0,0 l/m 0,5 km/h (0 Bft) S 0,00 h 0,0 UV-I 0 W/m -3,7 C -3,0 C 1,6 km/h (1 Bft)
21.12.2016 18:00 23,3 C -3,1 C 50 % 95 % 1033,7 hPa 0,0 l/m 0,8 km/h (0 Bft) S 0,00 h 0,0 UV-I 0 W/m -3,8 C -3,1 C 2,4 km/h (1 Bft)
21.12.2016 19:00 23,6 C -3,3 C 51 % 95 % 1033,8 hPa 0,0 l/m 1,7 km/h (1 Bft) S 0,00 h 0,0 UV-I 0 W/m -3,9 C -3,3 C 3,6 km/h (1 Bft)
21.12.2016 20:00 23,6 C -3,5 C 51 % 95 % 1034,0 hPa 0,0 l/m 2,3 km/h (1 Bft) S 0,00 h 0,0 UV-I 0 W/m -4,2 C -3,5 C 4,7 km/h (1 Bft)
21.12.2016 21:00 23,7 C -3,5 C 51 % 96 % 1034,1 hPa 0,0 l/m 0,9 km/h (0 Bft) S-SO 0,00 h 0,0 UV-I 0 W/m -4,0 C -3,5 C 2,2 km/h (1 Bft)
21.12.2016 22:00 23,9 C -3,4 C 51 % 96 % 1034,2 hPa 0,0 l/m 1,3 km/h (1 Bft) S 0,00 h 0,0 UV-I 0 W/m -4,0 C -3,4 C 3,0 km/h (1 Bft)
21.12.2016 23:00 23,7 C -3,6 C 51 % 96 % 1034,2 hPa 0,0 l/m 1,0 km/h (0 Bft) SO 0,00 h 0,0 UV-I 0 W/m -4,1 C -3,6 C 2,4 km/h (1 Bft)
22.12.2016 00:00 23,8 C -3,6 C 52 % 96 % 1033,8 hPa 0,0 l/m 2,2 km/h (1 Bft) SO 0,00 h 0,0 UV-I 0 W/m -4,2 C -3,6 C 4,6 km/h (1 Bft)
22.12.2016 01:00 23,9 C -3,9 C 52 % 96 % 1033,8 hPa 0,0 l/m 0,9 km/h (0 Bft) O 0,00 h 0,0 UV-I 0 W/m -4,4 C -3,9 C 2,6 km/h (1 Bft)
22.12.2016 02:00 23,9 C -4,0 C 52 % 96 % 1033,9 hPa 0,0 l/m 0,5 km/h (0 Bft) O-NO 0,00 h 0,0 UV-I 0 W/m -4,6 C -4,0 C 1,4 km/h (1 Bft)
22.12.2016 03:00 23,8 C -4,2 C 52 % 95 % 1033,8 hPa 0,0 l/m 0,1 km/h (0 Bft) O 0,00 h 0,0 UV-I 0 W/m -4,8 C -4,2 C 0,3 km/h (0 Bft)
22.12.2016 04:00 23,6 C -4,9 C 52 % 95 % 1033,8 hPa 0,0 l/m 0,0 km/h (0 Bft) N 0,00 h 0,0 UV-I 0 W/m -5,6 C -4,9 C 0,0 km/h (0 Bft)
22.12.2016 05:00 23,1 C -5,0 C 53 % 95 % 1033,6 hPa 0,0 l/m 0,5 km/h (0 Bft) O 0,00 h 0,0 UV-I 0 W/m -5,6 C -5,0 C 1,5 km/h (1 Bft)
22.12.2016 06:00 23,0 C -4,3 C 53 % 95 % 1033,7 hPa 0,0 l/m 0,3 km/h (0 Bft) O-SO 0,00 h 0,0 UV-I 0 W/m -5,0 C -4,3 C 0,9 km/h (0 Bft)
22.12.2016 07:00 22,8 C -4,0 C 53 % 96 % 1033,8 hPa 0,0 l/m 1,6 km/h (1 Bft) SO 0,00 h 0,0 UV-I 0 W/m -4,5 C -4,0 C 3,7 km/h (1 Bft)
22.12.2016 08:00 22,8 C -3,8 C 53 % 96 % 1034,2 hPa 0,0 l/m 1,6 km/h (1 Bft) SO 0,00 h 0,0 UV-I 9 W/m -4,4 C -3,8 C 3,2 km/h (1 Bft)
22.12.2016 09:00 23,0 C -3,5 C 53 % 96 % 1034,8 hPa 0,0 l/m 2,9 km/h (1 Bft) S-SO 0,00 h 0,0 UV-I 24 W/m -4,0 C -3,5 C 4,8 km/h (1 Bft)
22.12.2016 10:00 23,1 C -3,2 C 53 % 96 % 1034,6 hPa 0,0 l/m 4,9 km/h (1 Bft) S 0,00 h 0,0 UV-I 49 W/m -3,7 C -3,7 C 8,6 km/h (2 Bft)
22.12.2016 11:00 23,2 C -3,0 C 52 % 96 % 1034,4 hPa 0,0 l/m 4,4 km/h (1 Bft) S 0,00 h 0,0 UV-I 56 W/m -3,5 C -3,3 C 7,4 km/h (2 Bft)
22.12.2016 12:00 23,3 C -2,8 C 52 % 96 % 1034,0 hPa 0,0 l/m 4,5 km/h (1 Bft) S-SO 0,00 h 0,0 UV-I 54 W/m -3,3 C -3,1 C 8,0 km/h (2 Bft)
22.12.2016 13:00 23,4 C -2,6 C 52 % 96 % 1033,8 hPa 0,0 l/m 3,1 km/h (1 Bft) S-SO 0,00 h 0,0 UV-I 45 W/m -3,1 C -2,6 C 5,8 km/h (2 Bft)
22.12.2016 14:00 23,5 C -2,6 C 51 % 95 % 1033,8 hPa 0,0 l/m 1,9 km/h (1 Bft) W-SW 0,00 h 0,0 UV-I 31 W/m -3,2 C -2,6 C 4,4 km/h (1 Bft)
22.12.2016 15:00 23,7 C -2,7 C 52 % 95 % 1033,8 hPa 0,0 l/m 2,6 km/h (1 Bft) S 0,00 h 0,0 UV-I 13 W/m -3,4 C -2,7 C 5,3 km/h (1 Bft)
22.12.2016 16:00 23,5 C -2,8 C 51 % 95 % 1034,1 hPa 0,0 l/m 2,0 km/h (1 Bft) S 0,00 h 0,0 UV-I 0 W/m -3,5 C -2,8 C 4,1 km/h (1 Bft)
22.12.2016 17:00 23,4 C -3,0 C 52 % 96 % 1034,5 hPa 0,0 l/m 3,7 km/h (1 Bft) S-SO 0,00 h 0,0 UV-I 0 W/m -3,6 C -3,1 C 5,8 km/h (2 Bft)
22.12.2016 18:00 23,6 C -3,2 C 54 % 96 % 1034,9 hPa 0,0 l/m 3,4 km/h (1 Bft) S 0,00 h 0,0 UV-I 0 W/m -3,8 C -3,3 C 6,5 km/h (2 Bft)
22.12.2016 19:00 23,7 C -3,2 C 54 % 96 % 1035,1 hPa 0,0 l/m 2,3 km/h (1 Bft) S-SO 0,00 h 0,0 UV-I 0 W/m -3,8 C -3,2 C 4,5 km/h (1 Bft)
22.12.2016 20:00 23,7 C -3,3 C 54 % 96 % 1035,0 hPa 0,0 l/m 2,2 km/h (1 Bft) S-SO 0,00 h 0,0 UV-I 0 W/m -3,8 C -3,3 C 4,5 km/h (1 Bft)
22.12.2016 21:00 23,8 C -3,3 C 54 % 96 % 1034,9 hPa 0,0 l/m 1,1 km/h (1 Bft) S-SO 0,00 h 0,0 UV-I 0 W/m -3,9 C -3,3 C 2,7 km/h (1 Bft)
22.12.2016 22:00 23,8 C -3,3 C 54 % 96 % 1034,7 hPa 0,0 l/m 0,9 km/h (0 Bft) S-SO 0,00 h 0,0 UV-I 0 W/m -3,8 C -3,3 C 2,5 km/h (1 Bft)
22.12.2016 23:00 23,8 C -3,2 C 54 % 96 % 1035,0 hPa 0,0 l/m 0,3 km/h (0 Bft) S 0,00 h 0,0 UV-I 0 W/m -3,7 C -3,2 C 1,1 km/h (0 Bft)
23.12.2016 00:00 23,8 C -3,2 C 54 % 96 % 1035,3 hPa 0,0 l/m 0,3 km/h (0 Bft) S-SO 0,00 h 0,0 UV-I 0 W/m -3,7 C -3,2 C 0,6 km/h (0 Bft)
23.12.2016 01:00 23,9 C -3,0 C 54 % 96 % 1035,2 hPa 0,0 l/m 0,0 km/h (0 Bft) SO 0,00 h 0,0 UV-I 0 W/m -3,5 C -3,0 C 0,2 km/h (0 Bft)
23.12.2016 02:00 23,8 C -2,7 C 54 % 96 % 1035,7 hPa 0,0 l/m 0,5 km/h (0 Bft) SW 0,00 h 0,0 UV-I 0 W/m -3,3 C -2,7 C 1,4 km/h (1 Bft)
23.12.2016 03:00 23,8 C -2,4 C 54 % 96 % 1035,6 hPa 0,0 l/m 0,6 km/h (0 Bft) S 0,00 h 0,0 UV-I 0 W/m -2,9 C -2,4 C 1,8 km/h (1 Bft)
23.12.2016 04:00 23,7 C -2,2 C 54 % 97 % 1036,1 hPa 0,0 l/m 0,3 km/h (0 Bft) S 0,00 h 0,0 UV-I 0 W/m -2,6 C -2,2 C 1,1 km/h (1 Bft)
23.12.2016 05:00 23,6 C -2,1 C 54 % 97 % 1036,8 hPa 0,0 l/m 0,3 km/h (0 Bft) S 0,00 h 0,0 UV-I 0 W/m -2,5 C -2,1 C 0,8 km/h (0 Bft)
23.12.2016 06:00 23,6 C -1,9 C 54 % 97 % 1037,2 hPa 0,0 l/m 0,2 km/h (0 Bft) S 0,00 h 0,0 UV-I 0 W/m -2,3 C -1,9 C 0,3 km/h (0 Bft)
23.12.2016 07:00 23,5 C -1,8 C 54 % 97 % 1037,3 hPa 0,0 l/m 0,0 km/h (0 Bft) N 0,00 h 0,0 UV-I 0 W/m -2,2 C -1,8 C 0,0 km/h (0 Bft)
23.12.2016 08:00 23,4 C -1,7 C 55 % 97 % 1038,0 hPa 0,0 l/m 0,1 km/h (0 Bft) S 0,00 h 0,0 UV-I 10 W/m -2,1 C -1,7 C 0,2 km/h (0 Bft)
23.12.2016 09:00 23,4 C -1,4 C 55 % 97 % 1038,6 hPa 0,0 l/m 0,3 km/h (0 Bft) S-SO 0,00 h 0,0 UV-I 15 W/m -1,8 C -1,4 C 1,2 km/h (1 Bft)
23.12.2016 10:00 23,4 C -0,9 C 55 % 97 % 1038,6 hPa 0,0 l/m 1,4 km/h (1 Bft) S 0,00 h 0,0 UV-I 43 W/m -1,3 C -0,9 C 3,4 km/h (1 Bft)
23.12.2016 11:00 23,4 C -0,5 C 55 % 97 % 1038,4 hPa 0,0 l/m 1,1 km/h (1 Bft) W-SW 0,00 h 0,0 UV-I 54 W/m -0,9 C -0,5 C 3,1 km/h (1 Bft)
23.12.2016 12:00 23,6 C -0,2 C 55 % 97 % 1038,0 hPa 0,0 l/m 2,8 km/h (1 Bft) W-SW 0,00 h 0,0 UV-I 51 W/m -0,6 C -0,2 C 6,4 km/h (2 Bft)
23.12.2016 13:00 23,6 C -0,2 C 54 % 97 % 1037,7 hPa 0,0 l/m 1,8 km/h (1 Bft) S 0,00 h 0,0 UV-I 41 W/m -0,6 C -0,2 C 4,6 km/h (1 Bft)
23.12.2016 14:00 23,7 C -0,1 C 52 % 97 % 1037,0 hPa 0,0 l/m 0,9 km/h (0 Bft) S 0,00 h 0,0 UV-I 26 W/m -0,5 C -0,1 C 2,8 km/h (1 Bft)
23.12.2016 15:00 23,7 C -0,1 C 52 % 98 % 1036,7 hPa 0,0 l/m 1,1 km/h (0 Bft) S 0,00 h 0,0 UV-I 9 W/m -0,4 C -0,1 C 3,0 km/h (1 Bft)
23.12.2016 16:00 23,7 C -0,2 C 53 % 97 % 1036,3 hPa 0,0 l/m 0,8 km/h (0 Bft) S 0,00 h 0,0 UV-I 0 W/m -0,5 C -0,2 C 2,7 km/h (1 Bft)
23.12.2016 17:00 23,6 C -0,3 C 53 % 98 % 1035,8 hPa 0,0 l/m 0,3 km/h (0 Bft) S 0,00 h 0,0 UV-I 0 W/m -0,5 C -0,3 C 1,2 km/h (1 Bft)
23.12.2016 18:00 23,8 C -0,4 C 53 % 98 % 1035,1 hPa 0,0 l/m 0,9 km/h (0 Bft) S 0,00 h 0,0 UV-I 0 W/m -0,7 C -0,4 C 2,9 km/h (1 Bft)
23.12.2016 19:00 23,9 C -0,6 C 54 % 98 % 1034,7 hPa 0,0 l/m 0,8 km/h (0 Bft) S 0,00 h 0,0 UV-I 0 W/m -0,9 C -0,6 C 2,3 km/h (1 Bft)
23.12.2016 20:00 24,0 C -0,7 C 56 % 98 % 1034,3 hPa 0,0 l/m 0,7 km/h (0 Bft) S 0,00 h 0,0 UV-I 0 W/m -1,0 C -0,7 C 2,5 km/h (1 Bft)
23.12.2016 21:00 24,1 C -0,6 C 55 % 98 % 1033,8 hPa 0,0 l/m 0,0 km/h (0 Bft) N 0,00 h 0,0 UV-I 0 W/m -0,9 C -0,6 C 0,1 km/h (0 Bft)
23.12.2016 22:00 24,2 C -0,5 C 56 % 98 % 1033,5 hPa 0,0 l/m 0,1 km/h (0 Bft) S 0,00 h 0,0 UV-I 0 W/m -0,8 C -0,5 C 0,2 km/h (0 Bft)
23.12.2016 23:00 24,1 C -0,3 C 58 % 98 % 1032,6 hPa 0,0 l/m 2,4 km/h (1 Bft) S 0,00 h 0,0 UV-I 0 W/m -0,6 C -0,3 C 5,2 km/h (1 Bft)
24.12.2016 00:00 23,9 C -0,1 C 57 % 98 % 1031,6 hPa 0,0 l/m 5,5 km/h (1 Bft) S 0,00 h 0,0 UV-I 0 W/m -0,4 C -1,0 C 10,6 km/h (2 Bft)
24.12.2016 01:00 24,1 C -0,0 C 56 % 98 % 1031,0 hPa 0,0 l/m 2,2 km/h (1 Bft) S 0,00 h 0,0 UV-I 0 W/m -0,3 C -0,0 C 5,7 km/h (1 Bft)
24.12.2016 02:00 24,1 C 0,2 C 56 % 98 % 1031,1 hPa 0,0 l/m 1,0 km/h (0 Bft) W-SW 0,00 h 0,0 UV-I 0 W/m -0,1 C 0,2 C 2,9 km/h (1 Bft)
24.12.2016 03:00 24,1 C 0,1 C 57 % 98 % 1030,6 hPa 0,0 l/m 0,7 km/h (0 Bft) S-SW 0,00 h 0,0 UV-I 0 W/m -0,2 C 0,1 C 2,5 km/h (1 Bft)
24.12.2016 04:00 24,1 C 0,3 C 57 % 98 % 1029,8 hPa 0,0 l/m 1,0 km/h (0 Bft) S 0,00 h 0,0 UV-I 0 W/m -0,0 C 0,3 C 2,5 km/h (1 Bft)
24.12.2016 05:00 23,9 C 0,7 C 57 % 98 % 1029,5 hPa 0,0 l/m 1,0 km/h (0 Bft) S 0,00 h 0,0 UV-I 0 W/m 0,4 C 0,7 C 3,0 km/h (1 Bft)
24.12.2016 06:00 23,8 C 0,9 C 57 % 98 % 1029,3 hPa 0,0 l/m 6,3 km/h (2 Bft) S-SW 0,00 h 0,0 UV-I 0 W/m 0,6 C -0,1 C 11,8 km/h (2 Bft)
24.12.2016 07:00 23,6 C 1,3 C 57 % 98 % 1028,9 hPa 0,0 l/m 5,9 km/h (2 Bft) S 0,00 h 0,0 UV-I 0 W/m 1,1 C 0,4 C 10,6 km/h (2 Bft)
24.12.2016 08:00 23,4 C 1,6 C 57 % 98 % 1028,6 hPa 0,0 l/m 3,2 km/h (1 Bft) S 0,00 h 0,0 UV-I 6 W/m 1,3 C 1,4 C 7,6 km/h (2 Bft)
24.12.2016 09:00 23,6 C 1,8 C 57 % 98 % 1028,5 hPa 0,0 l/m 5,5 km/h (1 Bft) S 0,00 h 0,0 UV-I 23 W/m 1,5 C 0,8 C 10,6 km/h (2 Bft)
24.12.2016 10:00 23,7 C 2,3 C 57 % 98 % 1028,3 hPa 0,4 l/m 6,5 km/h (2 Bft) S-SW 0,00 h 0,0 UV-I 34 W/m 2,0 C 1,3 C 10,5 km/h (2 Bft)
24.12.2016 11:00 23,6 C 2,8 C 57 % 98 % 1027,7 hPa 0,4 l/m 6,4 km/h (2 Bft) SW 0,00 h 0,0 UV-I 63 W/m 2,5 C 2,0 C 12,3 km/h (3 Bft)
24.12.2016 12:00 23,5 C 3,3 C 57 % 98 % 1027,0 hPa 0,0 l/m 6,1 km/h (2 Bft) SW 0,00 h 0,0 UV-I 33 W/m 3,0 C 2,7 C 12,1 km/h (2 Bft)
24.12.2016 13:00 23,2 C 3,7 C 54 % 98 % 1027,0 hPa 0,2 l/m 8,3 km/h (2 Bft) W 0,00 h 0,0 UV-I 12 W/m 3,4 C 1,9 C 13,4 km/h (3 Bft)
24.12.2016 14:00 23,3 C 4,0 C 54 % 98 % 1026,9 hPa 0,0 l/m 8,4 km/h (2 Bft) W-SW 0,00 h 0,0 UV-I 57 W/m 3,6 C 2,0 C 13,4 km/h (3 Bft)
24.12.2016 15:00 23,4 C 4,1 C 55 % 95 % 1026,7 hPa 0,0 l/m 10,7 km/h (2 Bft) W-SW 0,00 h 0,0 UV-I 21 W/m 3,5 C 0,8 C 17,8 km/h (3 Bft)
24.12.2016 16:00 23,8 C 4,1 C 57 % 93 % 1027,0 hPa 0,0 l/m 10,4 km/h (2 Bft) W-SW 0,00 h 0,0 UV-I 0 W/m 3,1 C 0,9 C 17,7 km/h (3 Bft)
24.12.2016 17:00 24,1 C 3,9 C 57 % 93 % 1027,7 hPa 0,0 l/m 7,8 km/h (2 Bft) W-SW 0,00 h 0,0 UV-I 0 W/m 2,8 C 2,1 C 14,0 km/h (3 Bft)
24.12.2016 18:00 23,6 C 3,8 C 56 % 92 % 1027,9 hPa 0,0 l/m 4,8 km/h (1 Bft) W-SW 0,00 h 0,0 UV-I 0 W/m 2,6 C 3,5 C 9,7 km/h (2 Bft)
24.12.2016 19:00 23,3 C 3,7 C 56 % 92 % 1028,3 hPa 0,0 l/m 8,1 km/h (2 Bft) SW 0,00 h 0,0 UV-I 0 W/m 2,5 C 1,6 C 13,7 km/h (3 Bft)
24.12.2016 20:00 23,2 C 3,8 C 55 % 90 % 1028,0 hPa 0,0 l/m 11,3 km/h (2 Bft) W-SW 0,00 h 0,0 UV-I 0 W/m 2,3 C -0,0 C 19,8 km/h (4 Bft)
24.12.2016 21:00 23,1 C 3,7 C 54 % 91 % 1027,9 hPa 0,0 l/m 5,1 km/h (1 Bft) W-SW 0,00 h 0,0 UV-I 0 W/m 2,3 C 3,0 C 10,1 km/h (2 Bft)
24.12.2016 22:00 23,5 C 3,5 C 56 % 93 % 1027,8 hPa 0,0 l/m 4,9 km/h (1 Bft) SW 0,00 h 0,0 UV-I 0 W/m 2,4 C 3,0 C 9,8 km/h (2 Bft)
24.12.2016 23:00 23,8 C 3,7 C 56 % 93 % 1027,4 hPa 0,6 l/m 7,0 km/h (2 Bft) SW 0,00 h 0,0 UV-I 0 W/m 2,6 C 2,5 C 12,8 km/h (3 Bft)
25.12.2016 00:00 23,7 C 3,4 C 56 % 95 % 1026,7 hPa 0,0 l/m 4,9 km/h (1 Bft) SW 0,00 h 0,0 UV-I 0 W/m 2,6 C 3,1 C 10,0 km/h (2 Bft)
25.12.2016 01:00 23,8 C 3,8 C 58 % 95 % 1026,2 hPa 0,0 l/m 7,5 km/h (2 Bft) SW 0,00 h 0,0 UV-I 0 W/m 3,0 C 2,4 C 14,1 km/h (3 Bft)
25.12.2016 02:00 23,9 C 4,2 C 58 % 94 % 1026,2 hPa 0,4 l/m 9,5 km/h (2 Bft) W-SW 0,00 h 0,0 UV-I 0 W/m 3,3 C 1,6 C 15,7 km/h (3 Bft)
25.12.2016 03:00 24,1 C 4,1 C 58 % 94 % 1025,7 hPa 0,2 l/m 11,5 km/h (2 Bft) W-SW 0,00 h 0,0 UV-I 0 W/m 3,2 C 0,3 C 18,5 km/h (3 Bft)
25.12.2016 04:00 24,0 C 4,1 C 59 % 95 % 1025,3 hPa 0,4 l/m 11,9 km/h (2 Bft) W-SW 0,00 h 0,0 UV-I 0 W/m 3,3 C -0,0 C 18,5 km/h (3 Bft)
25.12.2016 05:00 24,0 C 4,1 C 60 % 95 % 1025,4 hPa 0,2 l/m 10,5 km/h (2 Bft) W-SW 0,00 h 0,0 UV-I 0 W/m 3,4 C 0,9 C 17,2 km/h (3 Bft)
25.12.2016 06:00 23,9 C 4,2 C 60 % 95 % 1025,5 hPa 0,0 l/m 11,7 km/h (2 Bft) W-SW 0,00 h 0,0 UV-I 0 W/m 3,5 C 0,2 C 18,7 km/h (3 Bft)
25.12.2016 07:00 23,7 C 4,3 C 58 % 96 % 1025,3 hPa 0,2 l/m 12,1 km/h (2 Bft) W-SW 0,00 h 0,0 UV-I 0 W/m 3,7 C -0,0 C 18,1 km/h (3 Bft)
25.12.2016 08:00 23,6 C 4,5 C 58 % 96 % 1025,6 hPa 0,0 l/m 13,6 km/h (3 Bft) W 0,00 h 0,0 UV-I 5 W/m 3,8 C -0,6 C 21,6 km/h (4 Bft)
25.12.2016 09:00 23,7 C 4,7 C 58 % 94 % 1025,7 hPa 0,0 l/m 13,6 km/h (3 Bft) W 0,00 h 0,0 UV-I 8 W/m 3,9 C -0,3 C 22,0 km/h (4 Bft)
25.12.2016 10:00 23,8 C 4,9 C 58 % 93 % 1025,9 hPa 0,0 l/m 10,6 km/h (2 Bft) W-SW 0,00 h 0,0 UV-I 13 W/m 3,9 C 1,7 C 14,8 km/h (3 Bft)
25.12.2016 11:00 23,5 C 5,0 C 55 % 93 % 1025,3 hPa 0,0 l/m 12,8 km/h (3 Bft) W-SW 0,00 h 0,0 UV-I 12 W/m 4,0 C 0,4 C 20,8 km/h (4 Bft)
25.12.2016 12:00 23,0 C 5,2 C 54 % 94 % 1024,7 hPa 0,0 l/m 16,7 km/h (3 Bft) W-SW 0,00 h 0,0 UV-I 25 W/m 4,3 C -1,3 C 26,9 km/h (4 Bft)
25.12.2016 13:00 22,8 C 5,2 C 53 % 95 % 1024,6 hPa 0,0 l/m 13,8 km/h (3 Bft) W 0,00 h 0,0 UV-I 31 W/m 4,5 C 0,2 C 22,0 km/h (4 Bft)
25.12.2016 14:00 22,9 C 5,2 C 52 % 96 % 1024,6 hPa 0,0 l/m 11,8 km/h (2 Bft) W 0,00 h 0,0 UV-I 24 W/m 4,6 C 1,3 C 18,7 km/h (3 Bft)
25.12.2016 15:00 23,3 C 5,2 C 52 % 96 % 1025,1 hPa 0,0 l/m 8,0 km/h (2 Bft) W 0,00 h 0,0 UV-I 6 W/m 4,6 C 3,5 C 13,1 km/h (3 Bft)
25.12.2016 16:00 23,3 C 5,2 C 54 % 96 % 1025,2 hPa 0,2 l/m 9,4 km/h (2 Bft) W-SW 0,00 h 0,0 UV-I 0 W/m 4,7 C 2,8 C 15,4 km/h (3 Bft)
25.12.2016 17:00 23,6 C 5,4 C 54 % 97 % 1025,5 hPa 0,0 l/m 7,3 km/h (2 Bft) W-SW 0,00 h 0,0 UV-I 0 W/m 4,9 C 4,2 C 13,6 km/h (3 Bft)
25.12.2016 18:00 23,8 C 5,4 C 56 % 97 % 1025,7 hPa 0,0 l/m 3,0 km/h (1 Bft) SW 0,00 h 0,0 UV-I 0 W/m 4,9 C 5,3 C 7,7 km/h (2 Bft)
25.12.2016 19:00 24,0 C 5,4 C 58 % 97 % 1025,8 hPa 0,0 l/m 3,7 km/h (1 Bft) SW 0,00 h 0,0 UV-I 0 W/m 4,9 C 5,2 C 8,6 km/h (2 Bft)
25.12.2016 20:00 24,0 C 5,6 C 58 % 97 % 1025,9 hPa 0,0 l/m 8,7 km/h (2 Bft) W-SW 0,00 h 0,0 UV-I 0 W/m 5,1 C 3,2 C 14,6 km/h (3 Bft)
25.12.2016 21:00 24,2 C 5,7 C 58 % 97 % 1026,0 hPa 0,0 l/m 10,8 km/h (2 Bft) W-SW 0,00 h 0,0 UV-I 0 W/m 5,2 C 2,4 C 18,1 km/h (3 Bft)
25.12.2016 22:00 24,3 C 5,7 C 58 % 97 % 1026,4 hPa 0,2 l/m 8,1 km/h (2 Bft) W-SW 0,00 h 0,0 UV-I 0 W/m 5,3 C 4,0 C 14,0 km/h (3 Bft)
25.12.2016 23:00 24,4 C 5,7 C 58 % 97 % 1026,5 hPa 0,0 l/m 10,2 km/h (2 Bft) W-SW 0,00 h 0,0 UV-I 0 W/m 5,3 C 2,8 C 16,1 km/h (3 Bft)
Min-Datum _ 21.12.16 21.12.16 21.12.16 24.12.16 25.12.16 - 19.12.16 - - - - 21.12.16 20.12.16 19.12.16
_ Min-Zeit 13:44 05:50 13:33 20:28 12:36 - 00:00 - - - - 05:50 19:52 00:00
Minimum _ 20,7 C -6,8 C 32 % 89 % 1024,4 hPa - 0,0 km/h (0 Bft) - - - - -7,7 C -10,6 C 0,0 km/h (0 Bft)
Max-Datum _ 19.12.16 25.12.16 25.12.16 19.12.16 23.12.16 24.12.16 25.12.16 - 20.12.16 20.12.16 20.12.16 25.12.16 25.12.16 25.12.16
_ Max-Zeit 20:22 21:49 05:08 03:49 09:52 23:42 09:03 - 11:14 12:29 12:26 21:49 21:49 12:28
Maximum _ 24,6 C 5,8 C 60 % 98 % 1038,8 hPa 0,6 l/m 25,7 km/h
W (4 Bft)
- 0,02 h 0,8 UV-I 315 W/m 5,4 C 5,8 C 40,2 km/h
W-SW (6 Bft)
Durchschnitt _ 23,8 C -0,5 C 54 % 95 % 1030,7 hPa #3,4 l/m 3,9 km/h (1 Bft) W-SW #28 min. 0,5 UV-I 33 W/m -1,2 C -1,2 C 7,6 km/h (2 Bft)